Location: Beuerbach
(48.1459°N, 10.9174°E)
Time: 03:23:39
(UTC+00:00)

USA 267 - Pass Details

Date: 23 May 2024
Orbit: 1100 x 1107 km, 123.0° (Epoch: 21 May)

Event Time Altitude Azimuth Distance (km) Brightness Sun altitude
Rises 00:15:03 0° 56° (NE) 3,922 6.9 -19.8°
Reaches altitude 10° 00:17:33 10° 54° (NE) 2,963 6.2 -19.7°
Maximum altitude 00:24:02 69° 333° (NNW) 1,176 3.5 -19.4°
Enters shadow 00:30:21 11° 252° (WSW) 2,899 5.1 -19.1°
